Location: Владивосток
(43.1151°N, 131.8856°E)
Time: 21:59:48
(UTC+10:00)

DX 1 - Pass Details

Date: 04 July 2022
Orbit: 617 x 629 km, 98.4° (Epoch: 11 August)

Event Time Altitude Azimuth Distance (km) Brightness Sun altitude
Rises 22:12:23 0° 16° (NNE) 2,928 ? -11.6°
Reaches altitude 10° 22:14:37 10° 20° (NNE) 2,014 ? -11.9°
Maximum altitude 22:18:57 61° 101° (ESE) 713 ? -12.4°
Enters shadow 22:23:10 11° 182° (S) 1,957 ? -12.9°
